User: anonymous   Login
Location: Unspecified
(0.0000°N, 0.0000°E)
Time: 22:52:18
(UTC+00:00)
Language:

GALASSIA - Orbit

View from above orbital plane
View from above orbital plane
View from above satellite
View from above satellite

Ground track
Ground track

The orbit data is extracted from the following two-line orbital elements,

1 41170U 15077E   17113.41893739 +.00004596 +00000-0 +22144-3 0  9990
2 41170 014.9885 206.1742 0013651 354.3127 005.7038 15.11927051074773
Epoch (UTC): 23 April 2017 10:03:16
Eccentricity: 0.0013651
inclination: 14.9885°
perigee height: 521 km
apogee height: 540 km
right ascension of ascending node: 206.1742°
argument of perigee: 354.3127°
revolutions per day: 15.11927051
mean anomaly at epoch: 5.7038°
orbit number at epoch: 7477

The dashed part of the orbit path shows where the satellite is in the earth's shadow,  

DLR